Volver al catálogo

COSMOS 2499 DEB

ActivoPO
NORAD 49942·DEBRIS·🇷🇺 Russia

Lanzado May 23, 2014 desde Plesetsk Cosmodrome

Loading…

Próximos Pases (próximas 24 horas)

TLE

ActualizadoSource: Space-Track

Época: Sep 14, 2026, 12:41 UTC

1 49942U 14028Z   26257.52895549  .00001753  00000-0  65070-2 0  9998
2 49942  82.4578 194.9485 0194543 148.1977 213.1052 12.85823849227697

Sigue COSMOS 2499 DEB en tiempo real con AllMySat

Download on the App Store